Itay Solomon

Scout - Maccabi Tel Aviv
22 Feb 2027
Monday
Process

Personality

Adaptability (13) Ambition (20) Controversy (4) Loyalty (18) Pressure (14) Professionalism (19) Sportsmanship (8) Temperament (5)

Profile

Coaching Style Democratic
License Continental C
Determination 10
Man Management 7
Motivating 13
Discipline 8
Job Satisfaction
59%
Fatigue
0%
Role Scout
Wage 81.4K p/w
Contract 14.03.2027

Performance

Behaviour Good
Training Effectiveness
22%
Player Development
45%
Injury Prevention
65%
Tactical Implementation
25%

Recent Events

Attended a recruitment meeting now
Contract negotiation started now
Contract negotiation started now
Assessed a player now
Contract negotiation started now
Assessed a player now
Contract negotiation started now
Assessed a player now

Currently Monitoring

91
Player Club Status Ability Confidence Watched Last Observed Latest Vote
Lorenzo Pirola Olympiacos Active 128 / 139 40% 1 19.02.2027 -
Luther Billiat Ajax Cape Town Active 111 / 120 40% 3 18.02.2027 -
Niklas Vesterlund Utrecht Active 111 / 130 40% 1 17.02.2027 -
João Muniz Sporting CP Active 107 / 110 40% 1 17.02.2027 -
Isaac Solet CSKA Sofia Active 105 / 107 40% 1 15.02.2027 -
Edvin Kurtuluş Ludogorets Active 116 / 107 40% 1 15.02.2027 -
Daniil Denisov Spartak Moscow Active 138 / 135 40% 1 08.02.2027 -
Veldin Hodža Rubin Active 115 / 133 40% 1 08.02.2027 -
Léo Leroy Preston Active 110 / 109 40% 1 29.01.2027 -
Jon Ander Olasagasti Levante Active 125 / 110 40% 1 29.01.2027 -
Tormena Krasnodar Active 150 / 114 40% 3 27.01.2027 -
Kristijan Bistrović Lokomotiv Moscow Active 106 / 126 40% 1 27.01.2027 -
Gift Zwane Platinum Stars Active 117 / 131 40% 1 25.01.2027 -
Zé Carlos Gil Vicente Active 132 / 116 40% 1 25.01.2027 -
Luan Patrick Estrela da Amadora Active 115 / 119 40% 1 07.01.2027 -
Agustín Sández Rosario Central Active 111 / 112 40% 2 02.01.2027 -
Pedro Naressi Ludogorets Active 125 / 106 40% 2 26.12.2026 -
Marko Janković Qarabag Active 109 / 141 40% 3 26.12.2026 -
Moisés CSKA Moscow Active 111 / 123 40% 5 25.12.2026 -
Aarón Quiros Vélez Active 107 / 137 40% 1 25.12.2026 -
Jorge Cabello Levante Active 133 / 122 40% 2 24.12.2026 -
Marko Grujić Levski Active 140 / 135 40% 3 22.12.2026 -
James Eto'o CSKA Sofia Active 113 / 126 40% 2 22.12.2026 -
Hendrik Bonmann Lokomotiv Moscow Active 122 / 120 40% 2 21.12.2026 -
Jacob Karlstrøm Anorthosis Active 106 / 138 40% 1 21.12.2026 -
Svetoslav Vutsov Levski Active 105 / 111 40% 3 19.12.2026 -
Matevž Vidovšek Olimpija Ljubljana Active 108 / 136 40% 1 19.12.2026 -
Mateusz Kochalski Qarabag Active 144 / 122 40% 4 18.12.2026 -
Daniel FC Dallas Active 124 / 146 40% 2 18.12.2026 -
Akram Bouras Levski Active 103 / 128 40% 1 17.12.2026 -
Žiga Frelih NK Celje Active 113 / 97 40% 3 16.12.2026 -
Pedro Rocha Juventude Lost 127 / 95 40% 1 16.12.2026 -
Jack Currie Oxford United Active 111 / 108 40% 1 14.12.2026 -
Víctor Cabezas Union Magdalena Lost 114 / 117 40% 1 11.12.2026 -
Fedor Lapoukhov CSKA Sofia Active 137 / 107 40% 1 11.12.2026 -
Lukas Mai Lugano Active 127 / 123 40% 2 10.12.2026 -
Sipho Chaine Orlando Pirates Lost 120 / 116 40% 1 10.12.2026 -
Nathan Gassama Baltika Active 106 / 137 40% 1 10.12.2026 -
Doğucan Haspolat Westerlo Active 128 / 125 40% 1 09.12.2026 -
Nouhou Seattle Sounders Active 110 / 112 40% 2 02.12.2026 -
Khuliso Mudau Mamelodi Sundowns Active 145 / 136 40% 1 27.11.2026 -
Ruslan Litvinov Spartak Moscow Active 124 / 114 40% 4 26.11.2026 -
Assaf Tzur Hapoel Tel Aviv Active 109 / 120 40% 1 23.11.2026 -
Abduvohid Ne'matov Nasaf Active 116 / 126 40% 1 23.11.2026 -
Nüraly Älip Zenit Active 122 / 107 40% 2 20.11.2026 -
Fernando Costanza Krylya Sovetov Active 134 / 120 40% 1 20.11.2026 -
Matt Grimes Coventry City Active 127 / 122 40% 2 17.11.2026 -
Danil Krugovoy CSKA Moscow Active 107 / 136 40% 1 16.11.2026 -
Kady Borges Qarabag Active 118 / 151 40% 1 16.11.2026 -
Lucas Arce Godoy Cruz Active 104 / 106 40% 2 14.11.2026 -
Uran Bislimi Lugano Active 120 / 131 40% 1 14.11.2026 -
Joseph Aidoo Maccabi Haifa Active 121 / 131 40% 2 13.11.2026 -
Dominik Takáč Slovan Bratislava Active 129 / 108 40% 3 12.11.2026 -
Richard Ludha MFK Skalica Active 124 / 131 40% 2 11.11.2026 -
Adrián Alavés Active 128 / 116 40% 1 11.11.2026 -
Denis Adamov Zenit Active 139 / 136 40% 1 07.11.2026 -
Daniil Fomin Dinamo Moscow Active 142 / 114 40% 1 06.11.2026 -
Filip Kaloč Ludogorets Active 112 / 131 40% 1 03.11.2026 -
Aljaž Ivačič DAC Dunajska Streda Active 121 / 134 40% 1 02.11.2026 -
Milan Gajić CSKA Moscow Active 125 / 119 40% 1 31.10.2026 -
Gerzino Nyamsi Lokomotiv Moscow Active 143 / 130 40% 1 31.10.2026 -
Gentian Selmani Teuta Durrës Active 127 / 122 40% 1 30.10.2026 -
Jaïro Riedewald Sheffield United Active 111 / 108 40% 1 28.10.2026 -
Stanislav Agkatsev Krasnodar Active 116 / 125 40% 1 26.10.2026 -
Tesfaldet Tekie Hammarby Active 115 / 127 40% 1 23.10.2026 -
Rominigue Kouamé Pakhtakor Active 126 / 121 40% 1 23.10.2026 -
Vinicius Tobias Shakhtar Active 115 / 118 40% 1 21.10.2026 -
Nicolás Marichal Dinamo Moscow Active 137 / 137 40% 1 20.10.2026 -
Facundo Altamirano San Lorenzo Active 97 / 107 40% 1 18.10.2026 -
Nikita Medvedev Nizhniy Novgorod Active 93 / 110 40% 1 16.10.2026 -
Evgeny Staver Rubin Active 101 / 101 40% 1 16.10.2026 -
Peter Leeuwenburgh Apollon Active 102 / 131 40% 1 15.10.2026 -
Matheus Reis CSKA Moscow Active 132 / 131 40% 1 09.10.2026 -
Christopher Wooh Spartak Moscow Active 110 / 122 40% 1 06.10.2026 -
Iván Villar Celta Active 122 / 110 40% 1 04.10.2026 -
Srđan Babić Spartak Moscow Active 142 / 127 40% 1 01.10.2026 -
Koffi Kouao Neftchi Active 128 / 128 40% 2 30.09.2026 -
Nathan Wood Southampton Active 132 / 127 40% 1 30.09.2026 -
Dinis Almeida Ludogorets Active 113 / 142 40% 1 28.09.2026 -
Svetozar Marković Slovan Bratislava Active 111 / 118 40% 1 26.09.2026 -
César Montes Lokomotiv Moscow Active 114 / 134 40% 1 20.09.2026 -
Joel Andersson Ludogorets Active 117 / 142 40% 1 18.09.2026 -
Alberto Grassi Cremonese Active 126 / 117 40% 1 18.09.2026 -
Anton Mitryushkin Lokomotiv Moscow Active 102 / 123 40% 1 17.09.2026 -
Lucas Souto Defensa y Justicia Active 138 / 135 40% 1 08.09.2026 -
Christian Makoun Levski Active 107 / 128 40% 1 07.09.2026 -
Artem Karpukas Zenit Active 109 / 131 40% 1 07.09.2026 -
Bingourou Kamara FC Lorient Active 120 / 116 40% 1 23.08.2026 -
Federico Acosta Miramar Misiones Active 79 / 102 40% 1 02.08.2026 -
George McCormick Middlesbrough Active 89 / 100 40% 1 02.08.2026 -
Matthew Litherland Blackburn Rovers Active 106 / 104 40% 1 01.08.2026 -